Regional Weather Roundup
Issued by NWS

Home | Current Version | Previous Version | Text Only | Print | Product List | Glossary On
Versions: 1 2 3 4 5 6 7 8 9 10 11 12 13 14 15 16 17 18 19 20 21 22 23 24 25 26 27 28 29 30 31 32 33 34 35 36 37 38 39 40 41 42 43 44 45 46 47 48 49 50
000
ASUS42 KFFC 280403
RWRGA
WEATHER ROUNDUP FOR GEORGIA
NATIONAL WEATHER SERVICE PEACHTREE CITY GA
1200 AM EDT SAT MAY 28 2016

NOTE: "FAIR" INDICATES FEW OR NO CLOUDS BELOW 12,000 FEET WITH NO
SIGNIFICANT WEATHER AND/OR OBSTRUCTIONS TO VISIBILITY.

* = USE WITH CAUTION. THE STATIONS MARKED WITH AN ASTERISK MAY NOT
REPORT WEATHER SUCH AS PRECIPITATION, FOG, OR THUNDER AND ARE NOT
QUALITY CONTROLLED BY NWS.

THE REMARK "TC" DENOTES TEMPERATURE READING IN DEGREES CELSIUS.

GAZ001>058-280500-
NORTH GEORGIA

CITY           SKY/WX    TMP DP  RH WIND       PRES   REMARKS
ATLANTA        MOCLDY    76  61  59 SE5       30.10R
ATHENS         PTCLDY    71  63  75 S3        30.11R
CHAMBLEE       PTCLDY    72  61  68 CALM      30.10R
ROME           CLOUDY    73  62  68 CALM      30.07S
WEST ATLANTA   MOCLDY    69  62  78 CALM      30.09R
GAINESVILLE    PTCLDY    72  61  68 CALM      30.14R
CARTERSVILLE   PTCLDY    65  62  90 SE3       30.09S


CITY           SKY/WX    TMP DP  RH WIND       PRES   REMARKS
DALTON*        CLEAR     72  63  73 CALM      30.09S
MARIETTA       PTCLDY    73  63  68 CALM      30.10R
CANTON*        PTCLDY    70  55  60 CALM      30.13R
BLAIRSVILLE*     N/A    N/A N/A N/A MISG      30.15S
$$

GAZ059>098-102>109-280500-
CENTRAL GEORGIA

CITY           SKY/WX    TMP DP  RH WIND       PRES   REMARKS
AUGUSTA-BUSH   CLEAR     67  61  81 CALM      30.10R
AUGUSTA-DANIEL CLEAR     73  60  63 SE6       30.12R
COLUMBUS       PTCLDY    73  59  61 CALM      30.06R
MACON          CLEAR     72  59  63 S7        30.08R


CITY           SKY/WX    TMP DP  RH WIND       PRES   REMARKS
LAGRANGE*      PTCLDY    67  66  96 CALM      30.08R
SYLVANIA*      CLEAR     71  65  80 CALM      30.11S
MILLEDGEVILLE* CLEAR     70  59  68 CALM      30.10R
$$

GAZ099>101-110>166-280500-
SOUTH GEORGIA

CITY           SKY/WX    TMP DP  RH WIND       PRES   REMARKS
SAVANNAH       CLEAR     70  65  84 NE5       30.09S
VALDOSTA       CLEAR     73  66  78 E3        30.06R
ALMA           CLEAR     68  65  90 CALM      30.07S
ST SIMONS      PTCLDY    75  70  84 NE9       30.06S
ALBANY         PTCLDY    75  62  64 E7        30.07R
BRUNSWICK      CLEAR     73  70  88 NE5       30.08S


CITY           SKY/WX    TMP DP  RH WIND       PRES   REMARKS
BAINBRIDGE*    PTCLDY    72  63  73 E5        30.05R
MOULTRIE*      CLEAR     73  64  73 E5        30.07R
VIDALIA*       CLEAR     70  63  78 SE3       30.09S
WAYCROSS*      CLEAR     70  66  87 E6        30.07S
DOUGLAS*       CLEAR     73  64  73 E5        30.09R
$$



USA.gov is the U.S. government's official web portal to all federal, state and local government web resources and services.